Wind_Speed
5 5 4 4 3 2 3 3 2 2 1 1 1 1 2 2 3 2 2 3 3 2 2 1 1 1 1 1 0 1 2 3 3 3 3 3 3 3 3 3 3 3 3
5 4 4 4 3 2 2 2 2 1 0 0 0 1 1 2 2 2 2 3 3 3 2 2 1 1 0 0 0 1 1 3 3 3 3 3 3 3 3 3 3 3 4
5 5 4 4 3 2 2 1 2 1 1 1 1 1 1 2 2 3 2 2 3 2 2 2 2 2 1 1 1 1 2 2 2 2 3 3 4 4 4 4 4 4 4
5 5 4 4 3 2 2 2 2 2 2 1 1 1 1 2 3 3 3 2 2 2 3 2 2 2 2 3 2 2 2 1 2 2 3 3 4 5 5 5 5 5 5
5 5 5 5 4 3 3 2 2 1 1 1 1 1 2 3 3 3 2 3 3 3 4 3 3 3 3 4 4 4 3 2 2 3 3 3 4 5 6 7 7 7 7
6 5 5 5 4 3 3 3 2 1 1 1 2 2 2 2 3 3 3 3 3 4 4 4 4 4 4 4 5 5 4 4 3 4 4 5 5 6 6 7 8 8 9
6 5 5 5 4 4 4 3 3 2 2 2 1 2 3 3 3 3 3 3 3 4 4 4 5 5 5 5 5 5 4 5 5 5 5 6 7 7 7 8 9 9 10
6 5 5 5 5 5 5 4 3 2 2 2 2 2 3 3 4 4 4 4 4 4 4 5 5 5 5 5 5 5 5 6 6 6 7 7 8 9 9 10 10 10 11
7 6 6 6 6 5 4 4 3 3 2 3 3 4 4 4 4 4 5 4 4 4 5 6 6 6 5 5 5 6 6 7 7 8 9 9 10 11 11 11 11 12 12
8 7 7 6 6 5 5 5 4 4 3 3 4 5 5 4 4 4 4 5 5 5 5 6 6 6 6 6 7 7 7 8 8 9 10 11 11 12 12 12 13 13 13
8 7 7 6 6 5 5 5 4 4 4 5 5 6 6 5 6 5 6 6 6 6 6 7 7 7 8 8 8 9 9 9 10 10 11 12 12 12 13 13 14 14 15
8 8 8 7 7 6 6 6 5 5 5 6 6 7 7 6 6 6 6 7 7 7 7 7 8 8 9 9 9 9 10 10 11 11 12 12 13 13 14 15 15 16 17
8 8 7 7 7 7 6 6 6 5 6 6 6 7 7 7 7 7 7 7 8 8 8 8 9 10 10 10 9 11 11 11 11 12 12 13 13 14 15 15 16 16 17
8 8 8 8 8 8 7 7 6 7 7 7 7 7 7 8 8 8 8 8 8 8 9 9 10 11 11 10 11 11 12 12 12 13 13 14 14 14 15 16 17 17 18
10 10 9 8 8 8 7 7 7 7 7 8 8 8 8 8 9 9 10 10 10 10 10 11 11 11 11 12 12 12 12 13 13 14 15 15 15 16 16 17 17 18 18
11 11 10 10 9 8 8 7 7 8 8 9 9 9 9 9 10 11 11 11 10 11 11 12 13 13 13 13 13 13 13 14 15 15 16 16 16 17 17 18 18 19 19
11 11 11 10 9 9 8 8 8 8 9 9 10 10 10 10 11 10 10 10 11 11 12 13 14 14 15 16 16 16 15 16 16 17 17 18 18 19 19 20 21 21 21
11 12 11 11 10 9 9 9 9 9 10 10 10 10 10 10 10 10 10 11 12 12 13 14 15 16 16 17 17 17 17 17 18 18 19 20 21 21 21 21 22 23 23
13 12 11 11 11 10 10 10 10 9 10 10 10 10 10 11 11 11 12 12 13 14 15 15 16 16 17 17 18 18 17 18 19 20 20 21 22 22 23 23 24 24 25
13 12 12 12 12 12 11 11 11 11 11 11 12 12 12 12 12 13 13 14 15 16 17 17 16 17 17 18 18 18 19 19 20 21 21 22 23 23 24 25 25 26 26
13 14 13 13 13 13 13 13 13 13 13 13 14 14 14 14 14 15 16 16 17 17 17 17 17 18 18 19 19 19 20 20 21 21 22 23 24 24 25 26 27 28 28
15 15 15 15 14 14 14 15 15 15 15 15 16 16 16 16 16 16 17 17 17 18 18 19 19 19 20 20 21 21 21 22 22 23 24 25 25 25 26 26 28 29 30
17 16 16 16 16 16 16 16 16 17 17 17 17 17 16 17 17 18 18 19 19 20 20 21 21 22 22 22 23 23 24 24 25 25 26 26 27 27 28 29 30 30 31
18 18 17 17 17 16 16 16 16 17 16 17 16 17 18 18 18 19 19 20 21 22 22 22 23 23 24 25 25 25 26 26 27 27 27 28 29 29 30 31 32 32 33
19 19 19 19 18 18 17 17 17 16 16 16 17 18 18 19 19 20 21 21 22 22 23 23 24 24 25 26 27 27 27 27 28 29 29 29 30 31 32 33 33 34 34
20 20 20 19 19 18 17 17 17 17 17 17 18 19 20 20 21 21 22 23 23 23 24 25 25 26 26 27 27 28 28 29 29 29 30 31 31 32 33 34 34 35 35
Wind_Direction
36 38 41 37 42 65 82 71 67 60 64 76 61 62 66 51 39 35 41 39 30 23 18 25 35 73 111 132 141 232 230 202 199 193 196 198 199 193 196 202 212 214 212
28 26 34 32 33 44 53 46 39 45 24 324 6 45 39 15 14 12 13 15 15 10 16 15 26 4 261 196 310 246 231 208 206 199 207 208 208 210 216 223 231 232 233
25 17 14 14 19 18 7 355 352 16 348 298 288 353 357 337 335 331 337 348 353 351 351 353 347 337 324 303 307 275 236 230 208 208 212 212 220 224 228 236 243 246 248
20 11 5 359 356 351 340 331 337 342 328 303 296 305 322 335 332 324 318 321 318 320 322 314 322 320 325 308 275 245 244 258 226 236 237 230 241 245 247 248 250 249 255
15 9 0 356 352 343 338 314 302 306 327 320 299 302 311 326 329 327 310 311 302 302 308 306 300 293 302 290 281 270 267 278 268 255 249 255 262 263 262 262 264 257 259
14 5 0 1 354 338 332 318 305 311 334 332 306 307 308 315 323 335 325 303 296 303 310 304 301 294 288 283 281 276 284 271 264 258 261 266 271 273 269 267 269 262 260
16 6 3 4 355 340 335 329 329 319 296 296 302 312 308 315 322 328 328 311 289 288 297 302 300 293 285 281 291 285 283 273 267 262 273 274 276 279 278 277 273 271 264
13 9 1 356 350 340 328 331 325 313 318 322 307 307 305 315 320 326 327 318 303 296 299 298 298 295 291 297 293 286 280 279 274 270 273 278 280 277 277 277 276 276 270
5 4 356 350 351 353 345 351 350 334 332 332 320 305 303 308 319 318 316 318 317 311 303 296 294 291 289 289 289 286 282 281 278 275 276 278 280 280 279 278 278 278 274
353 355 355 351 342 351 359 354 338 332 321 319 313 307 297 298 313 309 313 318 317 311 309 306 307 306 302 294 290 288 287 288 282 280 279 280 281 280 281 280 278 276 273
353 356 354 352 350 347 348 347 335 327 319 314 309 305 301 296 298 302 304 307 309 309 308 306 302 301 298 293 294 295 292 291 291 290 286 285 282 281 282 281 281 279 275
349 350 349 349 353 349 341 331 325 325 318 310 303 302 299 293 293 295 303 307 309 307 305 304 301 299 298 292 292 292 290 291 294 293 291 288 283 281 282 282 282 280 278
344 342 337 335 340 341 334 322 313 314 317 315 309 303 299 296 294 297 302 305 307 306 306 307 303 304 301 299 296 291 288 290 293 295 294 290 284 282 282 282 282 281 280
337 334 332 329 329 332 331 325 320 317 312 312 311 307 300 296 295 298 298 300 302 301 302 303 305 306 307 304 298 291 287 289 292 293 293 292 288 287 286 285 284 284 281
331 328 329 327 326 326 327 328 322 316 313 311 311 308 303 300 298 298 296 296 297 299 304 308 309 306 305 306 305 296 290 290 292 293 292 292 290 289 289 290 290 289 286
326 325 324 324 322 319 321 322 318 312 310 309 307 305 305 303 301 299 298 297 297 301 303 302 305 304 303 305 303 303 297 294 294 293 293 294 294 293 293 292 291 289 287
328 326 325 320 318 319 318 316 316 314 311 308 306 305 304 304 305 307 306 302 299 300 301 303 305 305 304 305 301 299 295 294 294 294 294 294 294 295 294 295 293 289 287
326 325 323 318 312 312 313 313 313 313 311 309 308 305 303 303 303 304 303 302 300 301 303 304 305 306 305 306 306 301 295 293 293 294 294 294 293 293 293 293 292 290 288
324 322 321 318 311 309 309 309 311 311 309 307 305 304 304 302 300 300 302 303 303 302 304 304 305 306 307 306 306 305 301 297 297 298 297 295 294 295 294 293 291 290 289
320 319 318 315 311 309 306 306 306 304 304 304 303 301 301 302 301 299 299 300 301 301 303 304 304 304 306 305 303 303 303 300 299 299 299 297 295 295 295 295 293 291 290
313 316 312 308 306 304 302 302 303 299 298 300 301 300 298 299 299 299 297 297 299 301 303 304 304 305 306 305 304 305 304 301 299 300 301 299 297 296 296 295 293 291 291
308 309 309 307 304 301 301 299 299 298 298 298 298 298 297 297 298 299 298 298 299 300 301 302 304 305 305 305 305 306 306 304 302 301 301 300 299 298 297 297 297 296 293
305 306 305 303 302 298 298 299 297 299 300 299 298 297 296 296 297 299 298 298 298 298 299 300 300 301 302 303 304 305 306 305 304 304 303 302 300 299 299 298 299 298 295
302 302 302 300 298 297 295 296 297 299 299 300 300 300 297 297 297 297 297 298 298 298 298 298 298 299 300 300 301 302 303 304 304 304 303 302 300 300 299 299 299 299 298
299 298 297 298 296 296 294 293 295 298 301 301 301 302 301 300 300 299 300 300 299 299 300 299 299 298 299 300 302 302 302 302 303 303 303 302 301 300 300 300 300 300 299
297 297 296 296 297 298 297 295 296 297 298 299 300 301 301 302 301 301 301 301 301 300 299 298 298 298 299 301 302 302 302 301 302 303 303 303 303 302 302 302 301 300 300
Height
5899 5899 5898 5898 5898 5899 5899 5899 5899 5899 5900 5900 5900 5900 5900 5901 5901 5901 5901 5901 5901 5901 5901 5901 5901 5901 5901 5902 5902 5902 5901 5902 5902 5903 5903 5904 5904 5904 5905 5905 5906 5906 5906
5899 5899 5899 5899 5899 5899 5899 5899 5900 5900 5900 5900 5900 5900 5901 5901 5901 5901 5901 5901 5901 5901 5901 5901 5901 5901 5901 5902 5902 5902 5901 5902 5902 5903 5903 5903 5904 5904 5905 5905 5905 5905 5906
5900 5900 5900 5900 5900 5900 5900 5900 5900 5900 5900 5900 5901 5901 5901 5901 5901 5901 5901 5901 5901 5901 5901 5901 5901 5901 5901 5901 5901 5901 5901 5902 5902 5902 5902 5903 5903 5904 5904 5904 5905 5905 5905
5901 5900 5901 5900 5900 5900 5900 5900 5900 5900 5900 5900 5900 5901 5901 5901 5900 5901 5901 5901 5901 5901 5901 5901 5901 5901 5901 5901 5901 5901 5901 5901 5901 5902 5902 5902 5903 5903 5903 5903 5904 5904 5904
5901 5901 5901 5900 5900 5900 5900 5900 5900 5900 5900 5900 5900 5900 5901 5901 5900 5900 5900 5900 5900 5901 5901 5901 5900 5900 5900 5900 5900 5900 5901 5901 5901 5901 5901 5902 5902 5902 5902 5902 5902 5902 5902
5901 5901 5901 5900 5900 5900 5900 5900 5900 5900 5900 5900 5900 5900 5900 5900 5900 5900 5900 5899 5899 5900 5900 5900 5899 5899 5899 5899 5899 5899 5900 5900 5900 5900 5900 5901 5901 5900 5900 5900 5900 5900 5900
5902 5901 5901 5900 5900 5900 5900 5900 5900 5900 5900 5900 5900 5900 5900 5900 5900 5900 5899 5899 5899 5899 5899 5898 5898 5898 5897 5898 5898 5898 5898 5898 5898 5899 5899 5899 5899 5899 5899 5898 5898 5898 5898
5902 5901 5901 5901 5900 5900 5899 5899 5899 5899 5899 5899 5899 5900 5900 5900 5899 5899 5899 5898 5898 5898 5897 5897 5897 5897 5896 5896 5897 5897 5897 5897 5897 5897 5897 5897 5897 5897 5897 5896 5896 5895 5895
5902 5902 5901 5901 5900 5899 5899 5899 5899 5899 5899 5899 5899 5899 5899 5899 5898 5898 5898 5897 5897 5897 5896 5896 5895 5895 5895 5895 5895 5895 5895 5895 5895 5895 5895 5895 5895 5894 5894 5894 5893 5893 5892
5902 5901 5901 5900 5900 5899 5899 5899 5898 5898 5899 5899 5898 5898 5898 5898 5898 5897 5897 5897 5896 5896 5895 5895 5895 5894 5894 5894 5894 5893 5893 5893 5893 5893 5892 5892 5892 5891 5891 5891 5890 5890 5889
5902 5902 5901 5900 5900 5899 5898 5898 5898 5898 5898 5898 5898 5898 5897 5897 5897 5897 5896 5896 5895 5894 5894 5894 5893 5893 5893 5892 5892 5891 5891 5891 5890 5890 5890 5889 5889 5888 5888 5887 5887 5886 5886
5902 5902 5901 5900 5899 5899 5898 5898 5898 5897 5897 5897 5896 5896 5896 5896 5895 5895 5895 5894 5894 5893 5892 5892 5891 5891 5891 5890 5889 5889 5889 5888 5888 5887 5887 5886 5885 5885 5884 5884 5883 5882 5881
5902 5901 5901 5900 5899 5899 5898 5897 5897 5897 5896 5896 5895 5895 5895 5895 5894 5894 5893 5893 5892 5891 5891 5890 5889 5889 5888 5887 5886 5886 5886 5886 5885 5884 5883 5883 5882 5881 5880 5880 5879 5878 5877
5902 5901 5900 5899 5898 5898 5897 5897 5896 5896 5896 5895 5895 5894 5894 5893 5893 5892 5892 5891 5890 5890 5889 5888 5887 5886 5885 5884 5884 5884 5883 5882 5882 5881 5880 5879 5878 5877 5877 5876 5875 5874 5873
5901 5900 5899 5898 5897 5897 5896 5896 5895 5895 5894 5894 5893 5893 5892 5891 5891 5890 5890 5889 5889 5888 5887 5886 5885 5884 5883 5882 5881 5880 5880 5879 5878 5877 5876 5875 5874 5873 5872 5871 5870 5869 5868
5900 5899 5898 5897 5897 5896 5895 5895 5894 5894 5893 5893 5892 5891 5890 5890 5889 5888 5887 5886 5886 5886 5885 5884 5883 5881 5880 5879 5878 5877 5876 5875 5874 5874 5872 5871 5870 5869 5868 5867 5865 5864 5863
5899 5898 5897 5896 5895 5895 5894 5894 5893 5892 5892 5891 5890 5889 5888 5887 5887 5886 5885 5884 5883 5883 5882 5881 5879 5878 5877 5876 5874 5873 5872 5871 5870 5869 5868 5867 5866 5864 5863 5862 5860 5859 5857
5898 5896 5895 5894 5894 5893 5893 5892 5891 5891 5890 5889 5888 5887 5886 5885 5884 5884 5883 5882 5881 5880 5879 5878 5876 5875 5873 5872 5870 5869 5868 5867 5866 5864 5863 5862 5860 5859 5857 5856 5854 5853 5851
5896 5894 5893 5892 5892 5891 5891 5890 5889 5888 5887 5887 5886 5885 5884 5883 5882 5881 5880 5879 5878 5877 5876 5874 5873 5871 5869 5868 5866 5864 5863 5862 5861 5859 5858 5856 5855 5853 5851 5849 5848 5846 5844
5894 5893 5892 5890 5890 5889 5889 5888 5887 5886 5885 5884 5883 5882 5881 5880 5879 5878 5877 5876 5875 5874 5872 5871 5869 5868 5866 5864 5862 5861 5859 5857 5856 5854 5852 5851 5849 5847 5845 5843 5841 5839 5837
5892 5891 5890 5889 5888 5887 5886 5885 5884 5883 5882 5881 5880 5879 5878 5877 5876 5875 5874 5873 5871 5870 5869 5867 5865 5864 5862 5860 5858 5856 5854 5852 5850 5848 5846 5845 5843 5840 5838 5836 5834 5831 5829
5890 5889 5887 5886 5885 5884 5883 5882 5881 5880 5879 5878 5877 5876 5875 5873 5872 5871 5870 5869 5867 5866 5864 5863 5861 5859 5857 5855 5853 5851 5849 5847 5845 5843 5841 5838 5836 5834 5831 5829 5826 5824 5821
5887 5885 5884 5883 5882 5881 5880 5879 5878 5877 5875 5874 5873 5872 5870 5869 5868 5867 5866 5864 5863 5861 5860 5858 5856 5854 5852 5850 5848 5846 5844 5841 5839 5836 5834 5831 5829 5826 5823 5821 5818 5815 5812
5883 5882 5881 5880 5878 5877 5876 5875 5874 5872 5871 5870 5869 5868 5866 5865 5864 5862 5861 5859 5858 5856 5854 5852 5851 5849 5847 5845 5842 5840 5838 5835 5832 5829 5827 5824 5821 5818 5815 5812 5809 5806 5803
5879 5878 5877 5876 5874 5873 5872 5871 5870 5869 5867 5866 5865 5863 5862 5860 5859 5857 5856 5854 5852 5850 5848 5846 5844 5843 5841 5838 5836 5834 5831 5829 5825 5822 5820 5817 5814 5810 5807 5804 5800 5797 5793
5874 5873 5872 5871 5870 5869 5867 5866 5865 5864 5863 5862 5861 5859 5857 5856 5854 5852 5850 5848 5846 5844 5842 5840 5838 5836 5834 5831 5829 5826 5824 5821 5818 5815 5812 5809 5805 5802 5799 5795 5791 5787 5783